SWA1317 KPWM-KBWI

Flight info

Callsign SWA1317
Flight time 1h 17m
Altitude 40000
Route NUBLE4 CCC TOPRR Q167 ZIZZI KNUKK ATR LAFLN MIIDY3
Aircraft B737/M-SDE2E3FGHIRWXY/LB1

Departure

Time 2026-04-24 23:49
Airport Portland International Jetport (KPWM)

Arrival

Time 2026-04-25 01:07
Airport Baltimore/Washington International Thurgood Marshall Airport (KBWI)
Time Latitude Longitude Altitude Speed Heading
2026-04-24 23:29 43.64764 -70.31323 82 ft 0 kts 50°
2026-04-24 23:42 43.64750 -70.31346 74 ft 4 kts 50°
2026-04-24 23:42 43.64736 -70.31369 76 ft 4 kts 70°
2026-04-24 23:42 43.64737 -70.31400 78 ft 4 kts 126°
2026-04-24 23:43 43.64752 -70.31421 75 ft 0 kts 140°
2026-04-24 23:45 43.64751 -70.31420 75 ft 1 kts 140°
2026-04-24 23:45 43.64719 -70.31385 78 ft 8 kts 140°
2026-04-24 23:46 43.64670 -70.31346 78 ft 9 kts 178°
2026-04-24 23:46 43.64626 -70.31406 81 ft 10 kts 254°
2026-04-24 23:46 43.64623 -70.31518 84 ft 17 kts 276°
2026-04-24 23:46 43.64635 -70.31699 86 ft 19 kts 275°
2026-04-24 23:47 43.64647 -70.31877 80 ft 18 kts 275°
2026-04-24 23:47 43.64658 -70.32049 90 ft 18 kts 275°
2026-04-24 23:47 43.64670 -70.32215 92 ft 17 kts 275°
2026-04-24 23:47 43.64681 -70.32375 94 ft 16 kts 276°
2026-04-24 23:48 43.64691 -70.32521 97 ft 13 kts 275°
2026-04-24 23:48 43.64636 -70.32587 97 ft 12 kts 188°
2026-04-24 23:48 43.64581 -70.32515 95 ft 19 kts 96°
2026-04-24 23:48 43.64545 -70.31976 85 ft 95 kts 95°
2026-04-24 23:49 43.64465 -70.30774 87 ft 155 kts 96°
2026-04-24 23:49 43.64371 -70.29233 673 ft 164 kts 95°
2026-04-24 23:49 43.64268 -70.27675 1564 ft 163 kts 94°
2026-04-24 23:49 43.64297 -70.26081 2257 ft 173 kts 69°
2026-04-24 23:50 43.64971 -70.24589 2675 ft 195 kts 47°
2026-04-24 23:50 43.65922 -70.23096 3125 ft 221 kts 49°
2026-04-24 23:50 43.66830 -70.21269 3612 ft 245 kts 66°
2026-04-24 23:50 43.66985 -70.18886 4461 ft 258 kts 96°
2026-04-24 23:51 43.66541 -70.16441 5340 ft 267 kts 103°
2026-04-24 23:51 43.65958 -70.13946 6148 ft 279 kts 110°
2026-04-24 23:51 43.64801 -70.11741 7002 ft 292 kts 140°
2026-04-24 23:51 43.62973 -70.10545 7996 ft 295 kts 172°
2026-04-24 23:52 43.60916 -70.10548 8947 ft 300 kts 188°
2026-04-24 23:52 43.58814 -70.10891 9893 ft 306 kts 195°
2026-04-24 23:52 43.56879 -70.12082 10574 ft 312 kts 222°
2026-04-24 23:52 43.55323 -70.14260 11042 ft 326 kts 235°
2026-04-24 23:53 43.53838 -70.16670 11848 ft 334 kts 236°
2026-04-24 23:53 43.52324 -70.19146 12768 ft 341 kts 236°
2026-04-24 23:53 43.50773 -70.21664 13697 ft 348 kts 236°
2026-04-24 23:53 43.49185 -70.24218 14580 ft 353 kts 237°
2026-04-24 23:54 43.47574 -70.26788 15563 ft 356 kts 237°
2026-04-24 23:54 43.45946 -70.29376 16524 ft 359 kts 237°
2026-04-24 23:54 43.44304 -70.31980 17513 ft 362 kts 237°
2026-04-24 23:54 43.42643 -70.34615 18436 ft 367 kts 238°
2026-04-24 23:55 43.40960 -70.37279 19228 ft 372 kts 238°
2026-04-24 23:55 43.39254 -70.39974 20066 ft 375 kts 238°
2026-04-24 23:55 43.37532 -70.42690 20905 ft 379 kts 238°
2026-04-24 23:55 43.35789 -70.45437 21724 ft 383 kts 239°
2026-04-24 23:56 43.34030 -70.48211 22532 ft 387 kts 239°
2026-04-24 23:56 43.32251 -70.51014 23322 ft 391 kts 239°
2026-04-24 23:56 43.30454 -70.53839 24044 ft 394 kts 239°
2026-04-24 23:56 43.28634 -70.56677 24667 ft 398 kts 238°
2026-04-24 23:57 43.26785 -70.59537 25289 ft 404 kts 236°
2026-04-24 23:57 43.24705 -70.62230 25923 ft 416 kts 230°
2026-04-24 23:57 43.22474 -70.64787 26553 ft 420 kts 229°
2026-04-24 23:57 43.20231 -70.67356 27298 ft 419 kts 230°
2026-04-24 23:58 43.18026 -70.69943 28166 ft 415 kts 231°
2026-04-24 23:58 43.15784 -70.72437 29037 ft 421 kts 223°
2026-04-24 23:58 43.13229 -70.74474 29846 ft 428 kts 218°
2026-04-24 23:58 43.10564 -70.76326 30514 ft 430 kts 216°
2026-04-24 23:59 43.07875 -70.78128 31089 ft 431 kts 216°
2026-04-24 23:59 43.05191 -70.79945 31688 ft 430 kts 217°
2026-04-24 23:59 43.02516 -70.81796 31990 ft 434 kts 217°
2026-04-24 23:59 42.99829 -70.83692 31973 ft 433 kts 217°
2026-04-25 00:00 42.95425 -70.86825 31970 ft 425 kts 218°
2026-04-25 00:00 42.90180 -70.90579 31980 ft 427 kts 217°
2026-04-25 00:01 42.84051 -70.94949 31995 ft 428 kts 217°
2026-04-25 00:01 42.78488 -70.98142 31992 ft 439 kts 208°
2026-04-25 00:02 42.73633 -71.00364 32025 ft 439 kts 207°
2026-04-25 00:02 42.67859 -71.03034 32023 ft 437 kts 208°
2026-04-25 00:03 42.62173 -71.05764 32013 ft 435 kts 208°
2026-04-25 00:03 42.56487 -71.08525 32000 ft 433 kts 208°
2026-04-25 00:04 42.50812 -71.11277 31999 ft 432 kts 208°
2026-04-25 00:04 42.44198 -71.14473 32005 ft 432 kts 208°
2026-04-25 00:05 42.39817 -71.17361 32022 ft 410 kts 226°
2026-04-25 00:05 42.35246 -71.21988 32020 ft 412 kts 227°
2026-04-25 00:06 42.30648 -71.26650 31988 ft 415 kts 226°
2026-04-25 00:06 42.25997 -71.31293 31979 ft 416 kts 225°
2026-04-25 00:07 42.21326 -71.35914 31983 ft 416 kts 225°
2026-04-25 00:07 42.16654 -71.40519 31984 ft 416 kts 225°
2026-04-25 00:08 42.11989 -71.45109 31991 ft 415 kts 225°
2026-04-25 00:08 42.07343 -71.49675 31986 ft 413 kts 225°
2026-04-25 00:09 42.02707 -71.54222 31991 ft 411 kts 225°
2026-04-25 00:09 41.98081 -71.58753 31990 ft 411 kts 225°
2026-04-25 00:10 41.93485 -71.63246 31967 ft 412 kts 224°
2026-04-25 00:10 41.88821 -71.67798 31987 ft 412 kts 224°
2026-04-25 00:11 41.84210 -71.72288 31989 ft 412 kts 224°
2026-04-25 00:11 41.79563 -71.76805 31980 ft 412 kts 224°
2026-04-25 00:12 41.74926 -71.81303 31967 ft 411 kts 224°
2026-04-25 00:12 41.70292 -71.85791 31980 ft 410 kts 224°
2026-04-25 00:13 41.65666 -71.90265 31987 ft 410 kts 224°
2026-04-25 00:13 41.61036 -71.94738 31979 ft 411 kts 225°
2026-04-25 00:14 41.56394 -71.99208 31971 ft 412 kts 226°
2026-04-25 00:14 41.52098 -72.04108 31990 ft 402 kts 235°
2026-04-25 00:15 41.48147 -72.09391 31993 ft 403 kts 236°
2026-04-25 00:15 41.44172 -72.14675 31994 ft 404 kts 235°
2026-04-25 00:16 41.40144 -72.19913 31982 ft 405 kts 235°
2026-04-25 00:16 41.36098 -72.25116 31992 ft 404 kts 234°
2026-04-25 00:17 41.32052 -72.30304 31982 ft 404 kts 236°
2026-04-25 00:17 41.28034 -72.35443 31992 ft 403 kts 236°
2026-04-25 00:18 41.23987 -72.40611 31966 ft 403 kts 237°
2026-04-25 00:18 41.19954 -72.45752 31981 ft 402 kts 237°
2026-04-25 00:19 41.15925 -72.50883 31988 ft 401 kts 237°
2026-04-25 00:19 41.11895 -72.56004 31980 ft 401 kts 237°
2026-04-25 00:20 41.07861 -72.61122 31945 ft 401 kts 237°
2026-04-25 00:20 41.03829 -72.66226 31986 ft 401 kts 237°
2026-04-25 00:21 40.99791 -72.71334 31996 ft 402 kts 237°
2026-04-25 00:21 40.95734 -72.76455 32001 ft 404 kts 237°
2026-04-25 00:22 40.91348 -72.81276 31988 ft 429 kts 221°
2026-04-25 00:22 40.86028 -72.84950 31986 ft 432 kts 219°
2026-04-25 00:23 40.80659 -72.88518 31988 ft 431 kts 219°
2026-04-25 00:23 40.75331 -72.92126 31971 ft 430 kts 220°
2026-04-25 00:24 40.70037 -72.95759 31887 ft 429 kts 219°
2026-04-25 00:24 40.64764 -72.99387 31959 ft 428 kts 219°
2026-04-25 00:25 40.59476 -73.03027 31971 ft 429 kts 219°
2026-04-25 00:25 40.54201 -73.06647 31970 ft 431 kts 219°
2026-04-25 00:26 40.48834 -73.10319 31955 ft 432 kts 219°
2026-04-25 00:26 40.43533 -73.13938 31959 ft 432 kts 219°
2026-04-25 00:27 40.38201 -73.17579 31969 ft 432 kts 219°
2026-04-25 00:27 40.32872 -73.21208 31969 ft 431 kts 219°
2026-04-25 00:28 40.27566 -73.24822 31970 ft 432 kts 219°
2026-04-25 00:28 40.24859 -73.26671 31991 ft 445 kts 218°
2026-04-25 00:28 40.22077 -73.28571 31989 ft 458 kts 218°
2026-04-25 00:29 40.19213 -73.30520 31965 ft 469 kts 217°
2026-04-25 00:29 40.16283 -73.32504 31979 ft 479 kts 217°
2026-04-25 00:29 40.10248 -73.36575 31970 ft 496 kts 216°
2026-04-25 00:30 40.04035 -73.40746 31973 ft 505 kts 216°
2026-04-25 00:30 39.97797 -73.44926 31967 ft 503 kts 216°
2026-04-25 00:31 39.91580 -73.49097 31957 ft 501 kts 216°
2026-04-25 00:31 39.85413 -73.53292 31962 ft 496 kts 219°
2026-04-25 00:32 39.82599 -73.55796 31961 ft 483 kts 229°
2026-04-25 00:32 39.80049 -73.58619 31970 ft 480 kts 231°
2026-04-25 00:32 39.75029 -73.64334 31964 ft 480 kts 231°
2026-04-25 00:33 39.70018 -73.69976 31960 ft 479 kts 229°
2026-04-25 00:33 39.64950 -73.75596 31963 ft 479 kts 229°
2026-04-25 00:34 39.59870 -73.81195 31965 ft 479 kts 229°
2026-04-25 00:34 39.54783 -73.86792 31961 ft 480 kts 229°
2026-04-25 00:35 39.49699 -73.92381 31958 ft 480 kts 229°
2026-04-25 00:35 39.44606 -73.97969 31959 ft 480 kts 229°
2026-04-25 00:36 39.39506 -74.03552 31960 ft 480 kts 228°
2026-04-25 00:36 39.34409 -74.09129 31936 ft 480 kts 228°
2026-04-25 00:37 39.29312 -74.14701 31951 ft 480 kts 228°
2026-04-25 00:37 39.24209 -74.20269 31948 ft 480 kts 228°
2026-04-25 00:38 39.19098 -74.25834 31945 ft 481 kts 228°
2026-04-25 00:38 39.13987 -74.31388 31937 ft 481 kts 228°
2026-04-25 00:39 39.08875 -74.36932 31922 ft 480 kts 227°
2026-04-25 00:39 39.03766 -74.42465 31939 ft 480 kts 227°
2026-04-25 00:40 38.98657 -74.47984 31945 ft 480 kts 227°
2026-04-25 00:40 38.96280 -74.50938 31931 ft 469 kts 238°
2026-04-25 00:40 38.94456 -74.54279 31948 ft 458 kts 248°
2026-04-25 00:41 38.92222 -74.61731 31623 ft 445 kts 263°
2026-04-25 00:41 38.91520 -74.65596 31083 ft 443 kts 264°
2026-04-25 00:41 38.90820 -74.69452 30469 ft 444 kts 263°
2026-04-25 00:42 38.90082 -74.73308 29846 ft 445 kts 262°
2026-04-25 00:42 38.89324 -74.77159 29280 ft 445 kts 262°
2026-04-25 00:42 38.88584 -74.81014 28706 ft 445 kts 263°
2026-04-25 00:42 38.87860 -74.84871 28142 ft 445 kts 263°
2026-04-25 00:43 38.87137 -74.88741 27582 ft 446 kts 262°
2026-04-25 00:43 38.86410 -74.92627 27019 ft 449 kts 262°
2026-04-25 00:43 38.85677 -74.96528 26455 ft 451 kts 262°
2026-04-25 00:43 38.84936 -75.00451 25885 ft 454 kts 262°
2026-04-25 00:44 38.84188 -75.04398 25313 ft 456 kts 261°
2026-04-25 00:44 38.83433 -75.08362 24700 ft 458 kts 261°
2026-04-25 00:44 38.82677 -75.12327 24131 ft 456 kts 261°
2026-04-25 00:44 38.81929 -75.16232 23539 ft 448 kts 261°
2026-04-25 00:45 38.81199 -75.20074 22862 ft 436 kts 262°
2026-04-25 00:45 38.80720 -75.23830 22171 ft 419 kts 269°
2026-04-25 00:45 38.80506 -75.27493 21584 ft 406 kts 270°
2026-04-25 00:45 38.80321 -75.31052 21028 ft 394 kts 270°
2026-04-25 00:46 38.80136 -75.34511 20507 ft 384 kts 269°
2026-04-25 00:46 38.79941 -75.37888 19998 ft 375 kts 269°
2026-04-25 00:46 38.79538 -75.44421 19019 ft 360 kts 268°
2026-04-25 00:47 38.79336 -75.47596 18547 ft 354 kts 268°
2026-04-25 00:47 38.79136 -75.50719 18060 ft 349 kts 268°
2026-04-25 00:47 38.78938 -75.53801 17515 ft 344 kts 268°
2026-04-25 00:47 38.78742 -75.56832 17015 ft 339 kts 268°
2026-04-25 00:48 38.78549 -75.59818 16560 ft 333 kts 268°
2026-04-25 00:48 38.78359 -75.62742 16204 ft 325 kts 268°
2026-04-25 00:48 38.78174 -75.65598 15788 ft 319 kts 268°
2026-04-25 00:48 38.77990 -75.68414 15356 ft 315 kts 268°
2026-04-25 00:49 38.77811 -75.71157 14931 ft 311 kts 268°
2026-04-25 00:49 38.77632 -75.73903 14506 ft 308 kts 268°
2026-04-25 00:49 38.77453 -75.76622 14085 ft 304 kts 268°
2026-04-25 00:49 38.77276 -75.79308 13665 ft 301 kts 268°
2026-04-25 00:50 38.77102 -75.81969 13193 ft 298 kts 268°
2026-04-25 00:50 38.76928 -75.84604 12762 ft 294 kts 268°
2026-04-25 00:50 38.76755 -75.87202 12332 ft 291 kts 268°
2026-04-25 00:50 38.76583 -75.89772 11907 ft 288 kts 268°
2026-04-25 00:51 38.76412 -75.92320 11484 ft 286 kts 268°
2026-04-25 00:51 38.76298 -75.93997 11200 ft 284 kts 268°
2026-04-25 00:51 38.76128 -75.96479 11013 ft 274 kts 268°
2026-04-25 00:51 38.75963 -75.98887 10834 ft 269 kts 268°
2026-04-25 00:52 38.75802 -76.01267 10685 ft 268 kts 269°
2026-04-25 00:52 38.75640 -76.03653 10541 ft 270 kts 268°
2026-04-25 00:52 38.75618 -76.06049 10372 ft 269 kts 283°
2026-04-25 00:52 38.76243 -76.08279 10236 ft 267 kts 300°
2026-04-25 00:53 38.77216 -76.10283 10076 ft 261 kts 303°
2026-04-25 00:53 38.78196 -76.12199 9840 ft 254 kts 303°
2026-04-25 00:53 38.79146 -76.14072 9581 ft 249 kts 303°
2026-04-25 00:53 38.80083 -76.15932 9315 ft 249 kts 303°
2026-04-25 00:54 38.81022 -76.17805 9066 ft 251 kts 303°
2026-04-25 00:54 38.81968 -76.19698 8815 ft 253 kts 303°
2026-04-25 00:54 38.82916 -76.21600 8554 ft 253 kts 302°
2026-04-25 00:54 38.83862 -76.23499 8298 ft 252 kts 302°
2026-04-25 00:55 38.84806 -76.25399 8042 ft 252 kts 302°
2026-04-25 00:55 38.86054 -76.27913 7703 ft 252 kts 302°
2026-04-25 00:55 38.86690 -76.29196 7534 ft 252 kts 301°
2026-04-25 00:55 38.87475 -76.31199 7279 ft 252 kts 291°
2026-04-25 00:56 38.88088 -76.33305 7025 ft 251 kts 290°
2026-04-25 00:56 38.88677 -76.35418 6775 ft 251 kts 289°
2026-04-25 00:56 38.89270 -76.37527 6517 ft 251 kts 290°
2026-04-25 00:56 38.89865 -76.39608 6263 ft 252 kts 290°
2026-04-25 00:57 38.90483 -76.41741 5986 ft 251 kts 290°
2026-04-25 00:57 38.91094 -76.43836 5728 ft 251 kts 290°
2026-04-25 00:57 38.91700 -76.45901 5478 ft 250 kts 290°
2026-04-25 00:57 38.92308 -76.47983 5221 ft 249 kts 289°
2026-04-25 00:58 38.92927 -76.50052 5075 ft 248 kts 293°
2026-04-25 00:58 38.93743 -76.52009 5031 ft 249 kts 298°
2026-04-25 00:58 38.94621 -76.53924 5028 ft 248 kts 298°
2026-04-25 00:58 38.95491 -76.55840 5026 ft 249 kts 298°
2026-04-25 00:59 38.96356 -76.57764 5012 ft 248 kts 298°
2026-04-25 00:59 38.97207 -76.59670 4988 ft 243 kts 298°
2026-04-25 00:59 38.98043 -76.61538 4838 ft 239 kts 298°
2026-04-25 00:59 38.98868 -76.63376 4711 ft 237 kts 298°
2026-04-25 01:00 38.99691 -76.65214 4584 ft 238 kts 298°
2026-04-25 01:00 39.00520 -76.67062 4454 ft 239 kts 298°
2026-04-25 01:00 39.01351 -76.68921 4273 ft 240 kts 298°
2026-04-25 01:00 39.02174 -76.70764 4025 ft 235 kts 298°
2026-04-25 01:01 39.02982 -76.72572 3786 ft 231 kts 298°
2026-04-25 01:01 39.03780 -76.74347 3542 ft 227 kts 298°
2026-04-25 01:01 39.04570 -76.76092 3316 ft 225 kts 298°
2026-04-25 01:01 39.05352 -76.77822 3115 ft 221 kts 299°
2026-04-25 01:02 39.06124 -76.79532 3067 ft 223 kts 299°
2026-04-25 01:02 39.06896 -76.81242 3039 ft 216 kts 299°
2026-04-25 01:02 39.07844 -76.82615 3017 ft 200 kts 329°
2026-04-25 01:02 39.09158 -76.82963 3009 ft 196 kts
2026-04-25 01:03 39.10493 -76.82657 2919 ft 195 kts
2026-04-25 01:03 39.11829 -76.82348 2759 ft 194 kts
2026-04-25 01:03 39.13163 -76.82044 2583 ft 195 kts
2026-04-25 01:03 39.14500 -76.81747 2410 ft 194 kts
2026-04-25 01:04 39.15801 -76.81378 2220 ft 191 kts 20°
2026-04-25 01:04 39.16942 -76.80488 2004 ft 192 kts 48°
2026-04-25 01:04 39.17626 -76.79037 1864 ft 190 kts 70°
2026-04-25 01:04 39.17891 -76.77446 1579 ft 175 kts 85°
2026-04-25 01:05 39.17899 -76.75950 1325 ft 156 kts 100°
2026-04-25 01:05 39.17785 -76.74628 1064 ft 144 kts 94°
2026-04-25 01:05 39.17732 -76.73404 846 ft 134 kts 96°
2026-04-25 01:05 39.17652 -76.72219 666 ft 131 kts 94°
2026-04-25 01:06 39.17591 -76.71043 519 ft 132 kts 96°
2026-04-25 01:06 39.17523 -76.69868 353 ft 132 kts 95°
2026-04-25 01:06 39.17460 -76.68687 178 ft 133 kts 94°
2026-04-25 01:06 39.17398 -76.67591 149 ft 99 kts 94°
2026-04-25 01:07 39.17362 -76.66957 151 ft 52 kts 94°
2026-04-25 01:07 39.17346 -76.66658 151 ft 16 kts 85°
2026-04-25 01:07 39.17395 -76.66591 152 ft 8 kts
2026-04-25 01:07 39.17430 -76.66593 153 ft 3 kts 341°
2026-04-25 01:08 39.17444 -76.66608 153 ft 2 kts 309°
2026-04-25 01:08 39.17451 -76.66631 153 ft 3 kts 283°
2026-04-25 01:08 39.17454 -76.66678 153 ft 12 kts 273°
2026-04-25 01:08 39.17465 -76.66806 154 ft 13 kts 292°
2026-04-25 01:09 39.17533 -76.66902 155 ft 21 kts 283°
2026-04-25 01:09 39.17627 -76.67076 155 ft 27 kts 324°
2026-04-25 01:09 39.17775 -76.67215 154 ft 26 kts 325°
2026-04-25 01:09 39.17943 -76.67371 153 ft 31 kts 325°
2026-04-25 01:10 39.18056 -76.67468 153 ft 7 kts 356°
2026-04-25 01:10 39.18088 -76.67423 155 ft 6 kts 54°
2026-04-25 01:10 39.18096 -76.67408 155 ft 0 kts 54°